Theta_e
293 288 285 288 289 290 289 287 286 290 293 292 290 291 293 295 295 295 296 297 302 307 311 309 311 314 317 317 318 321 324 325 328 325 327 329 339 341 338 342 344 342 341 345
289 286 292 294 293 291 290 287 287 290 294 291 290 290 293 293 294 295 296 296 296 299 301 309 312 315 317 318 318 318 318 321 324 323 322 324 328 330 332 335 340 343 343 342
287 291 296 294 292 291 289 287 288 288 292 291 290 288 290 293 295 297 298 297 297 300 301 306 312 314 316 316 318 318 317 318 319 320 321 323 323 322 323 325 329 332 333 335
289 293 293 291 291 291 285 292 292 291 287 282 289 282 287 290 292 294 296 296 296 297 302 307 310 312 312 316 316 318 318 316 317 319 317 317 317 316 319 321 324 328 331 332
289 291 291 289 291 293 289 294 291 290 286 282 284 280 283 288 289 292 294 296 298 298 299 304 308 312 313 313 314 314 315 315 316 317 315 314 314 316 318 319 320 321 325 329
292 295 293 292 295 294 295 290 287 285 282 277 283 282 282 286 289 291 294 297 299 300 298 302 308 310 310 311 313 315 314 313 316 317 316 315 313 313 314 316 317 318 320 322
290 291 294 296 290 293 289 283 277 276 276 279 285 282 285 289 293 294 296 297 298 299 300 300 303 306 309 310 310 313 312 312 315 315 315 315 315 314 315 314 316 318 319 319
284 284 291 296 292 289 287 285 279 275 275 279 286 280 286 294 297 298 298 298 297 298 299 301 302 308 311 311 310 313 311 311 313 313 313 313 312 313 314 314 317 315 316 318
284 286 295 297 297 295 289 284 286 282 284 278 282 286 292 295 296 297 297 297 296 297 299 300 304 306 309 310 310 313 312 311 313 313 312 312 312 312 313 314 315 314 315 320
290 284 293 295 296 295 292 293 283 283 277 275 281 283 284 290 291 295 296 296 296 298 300 301 301 302 304 306 309 311 313 312 311 313 312 312 313 314 314 314 314 314 315 318
291 287 288 292 290 289 289 288 289 287 284 277 277 280 288 289 292 294 297 297 297 297 299 300 303 301 301 301 302 307 308 309 308 309 311 311 312 312 313 313 314 315 315 316
294 289 284 288 292 296 293 290 290 283 282 285 281 281 294 293 295 297 298 300 300 299 299 303 305 305 303 300 300 301 302 304 307 309 310 310 311 311 310 313 315 316 315 314
295 286 281 284 288 292 290 292 289 286 287 281 277 280 294 297 295 297 299 300 301 301 300 301 301 302 303 304 303 302 302 304 306 308 309 310 310 309 310 312 313 311 312 311
297 289 285 281 285 288 287 289 291 289 283 283 283 285 290 293 293 296 298 299 301 298 299 301 301 300 303 303 304 305 305 303 304 305 306 307 308 310 311 311 311 310 310 310
292 285 288 289 290 291 289 289 289 286 288 284 285 286 289 292 293 295 297 300 301 301 301 301 301 302 304 305 305 305 305 307 306 305 304 304 307 307 307 308 308 309 309 311
290 283 288 286 290 289 287 288 288 289 288 287 287 286 293 296 296 296 297 299 299 300 301 301 301 301 302 303 305 307 306 306 305 304 304 305 306 307 306 307 309 310 310 310
286 284 282 279 285 285 280 284 286 288 290 289 284 289 291 296 296 296 297 298 297 299 300 300 300 301 301 301 302 303 304 305 305 304 305 306 306 307 308 310 309 308 308 309
284 282 281 277 280 273 283 293 293 290 291 293 292 292 295 295 296 297 298 295 296 297 298 297 298 299 299 300 301 302 303 303 304 304 305 307 307 307 308 308 308 308 306 306
288 286 280 275 274 281 285 292 291 290 289 295 294 294 294 295 293 293 300 297 296 295 295 295 295 295 296 297 298 299 300 301 302 303 303 305 306 306 306 305 304 304 302 302
291 291 283 277 276 274 284 293 296 296 285 295 294 293 291 292 285 289 294 296 296 297 295 294 294 295 295 295 296 295 296 297 298 300 302 304 305 304 304 303 301 301 301 303
283 283 282 282 280 281 292 294 297 284 281 292 292 291 292 290 292 293 296 295 295 296 295 296 295 294 295 295 295 294 295 295 298 300 301 302 303 303 304 303 302 302 302 303
283 280 275 282 279 275 293 292 284 287 290 291 290 293 292 293 293 294 295 294 295 295 295 296 295 295 295 296 294 293 293 296 297 298 298 299 299 301 302 302 302 302 303 302
281 288 280 283 280 289 289 291 291 291 290 291 292 293 294 292 292 292 293 294 295 295 295 296 295 293 295 296 295 293 294 296 297 297 297 298 299 300 301 300 301 301 302 301
288 289 288 285 287 287 290 291 291 292 293 295 295 295 294 291 292 293 293 291 291 292 292 291 291 292 293 294 294 294 294 295 295 295 295 296 296 297 298 300 301 302 301 301
287 287 283 283 286 289 289 290 294 294 295 295 294 293 293 293 293 293 291 291 292 291 290 292 291 291 292 293 293 295 296 296 295 295 296 296 298 299 299 301 301 301 303 303
288 285 279 280 288 290 288 293 294 293 292 293 293 293 294 294 293 291 290 291 290 289 290 290 291 290 291 292 293 295 296 297 296 296 297 297 298 299 300 301 301 300 300 300
Wind_Speed
3 4 7 10 8 7 4 4 7 6 10 4 7 11 9 9 7 9 11 8 10 12 11 7 7 6 5 6 8 9 10 7 6 3 4 3 7 8 8 8 13 11 7 3
4 6 10 5 5 7 8 8 10 7 7 5 7 13 9 4 6 7 9 10 10 8 8 6 8 10 11 12 10 8 7 7 6 4 3 3 3 2 3 1 3 15 6 3
7 10 0 4 8 4 5 5 7 8 3 3 5 9 6 4 5 7 8 5 4 8 10 8 7 12 12 11 12 11 9 8 7 6 3 2 1 2 2 2 1 3 4 9
6 8 6 4 6 6 5 6 7 6 2 6 1 14 6 6 5 5 10 9 9 8 8 7 8 7 10 12 7 9 10 9 7 8 5 5 4 2 2 1 1 5 8 7
11 5 7 5 10 8 9 7 7 6 5 4 4 6 2 3 9 11 9 11 10 9 9 11 11 14 11 7 10 7 8 8 7 8 8 5 4 2 1 0 2 4 4 4
11 3 6 9 9 6 2 2 4 5 4 3 8 7 4 4 9 6 5 9 9 10 9 13 15 10 7 6 7 8 9 7 8 8 8 9 8 6 3 2 1 1 1 2
9 11 6 3 4 6 4 6 4 4 2 11 9 7 10 7 8 12 17 10 9 8 9 11 12 13 12 12 9 7 8 8 7 7 6 6 6 6 5 3 2 1 0 1
5 11 5 6 11 11 7 9 7 8 7 7 4 7 8 5 7 9 9 8 4 7 7 10 14 17 18 17 13 11 9 6 7 8 8 7 7 5 5 5 5 4 3 3
4 6 5 5 4 7 3 4 5 4 2 1 4 7 7 11 13 8 10 3 4 6 7 8 5 4 9 14 12 13 11 8 9 10 7 7 6 6 7 8 5 4 4 3
5 4 5 4 3 2 5 4 2 2 4 10 4 5 8 9 10 13 16 6 2 4 7 8 6 6 4 5 11 8 10 14 14 11 9 8 10 8 8 5 7 7 6 6
5 6 5 2 5 6 1 2 4 2 2 3 5 6 7 3 1 7 14 14 5 5 6 4 6 3 2 1 4 6 7 9 8 9 9 8 8 8 7 7 7 8 6 7
2 2 4 7 5 3 3 1 4 4 5 5 4 7 7 2 1 2 6 15 17 9 3 3 5 8 3 3 3 5 5 5 7 7 9 10 10 8 8 9 11 8 9 7
6 3 4 7 4 4 5 2 3 3 2 6 5 6 2 2 3 5 5 8 13 10 10 5 7 8 4 2 0 2 4 8 10 9 8 10 10 8 10 12 11 8 10 9
6 3 4 5 4 3 5 6 5 4 4 3 6 14 17 14 6 5 5 6 11 9 10 7 7 6 4 2 4 4 3 5 7 7 7 8 9 10 11 11 10 10 10 10
6 7 7 9 10 7 9 11 12 8 13 10 12 14 14 11 5 5 5 6 8 9 9 8 7 7 5 1 1 2 7 5 2 6 6 8 9 8 7 7 7 7 7 10
1 4 2 5 7 10 13 13 12 13 11 10 17 16 7 6 5 5 5 5 5 6 6 7 7 8 10 9 6 5 5 5 3 6 6 6 6 6 8 8 10 9 10 9
4 5 3 4 4 4 6 8 7 3 0 3 5 3 10 9 6 5 6 4 6 8 7 9 10 9 9 9 9 11 11 7 6 7 6 7 7 9 9 10 9 9 9 9
5 5 3 3 3 1 5 4 4 3 2 3 5 7 3 7 11 11 7 2 6 8 8 9 7 8 9 7 9 9 8 9 9 8 7 7 8 11 12 10 11 10 7 10
6 4 1 2 3 6 3 4 4 3 3 3 4 7 7 8 8 6 1 4 10 10 7 8 8 9 9 12 12 11 12 11 10 9 8 8 7 9 8 10 11 8 6 6
5 2 6 2 2 5 3 3 5 6 5 3 5 6 7 8 8 9 3 8 16 13 10 9 9 10 12 13 11 13 15 14 15 14 12 10 9 9 10 9 7 6 5 8
2 2 3 3 3 5 2 6 7 2 3 6 6 8 10 8 8 15 19 15 17 12 14 14 10 12 14 14 12 15 17 18 16 13 13 14 13 13 12 8 6 7 9 10
2 1 2 2 3 6 3 4 1 2 5 8 9 11 12 13 17 17 15 18 15 19 19 16 15 15 16 15 14 18 20 18 17 17 17 15 14 13 13 16 15 15 15 16
0 4 4 7 6 1 3 6 3 3 7 8 11 13 14 17 18 18 18 16 15 17 19 20 17 21 18 15 15 19 19 16 14 14 15 15 15 14 14 15 16 14 15 14
3 3 2 3 1 4 9 3 4 5 9 13 13 13 14 17 19 19 16 20 18 18 19 17 22 21 16 14 19 18 17 18 18 18 18 16 16 16 16 14 14 14 14 14
4 2 1 5 4 7 2 5 12 14 13 13 14 15 16 20 19 15 20 21 20 16 18 16 15 18 19 18 19 18 17 16 17 18 17 17 15 16 15 16 15 16 19 18
4 4 3 5 4 5 8 8 13 14 16 17 17 19 19 18 18 24 23 20 15 19 16 17 16 18 19 18 17 17 16 16 17 16 14 14 13 13 14 14 16 26 33 29
Wind_Direction
18 86 228 233 205 225 239 232 247 257 267 223 245 271 272 287 308 291 289 280 239 235 230 244 236 184 153 166 165 173 155 166 139 134 144 151 182 196 197 176 184 232 203 191
22 247 240 233 228 219 235 253 274 278 247 189 268 272 281 255 255 269 283 295 266 259 260 249 206 185 188 188 185 166 178 161 158 139 143 152 173 180 147 84 208 164 225 328
173 245 19 215 272 257 248 206 246 221 250 278 268 279 295 261 250 274 288 281 290 269 281 270 210 213 188 185 185 172 160 159 147 139 115 92 98 124 124 138 165 213 233 218
225 255 212 224 226 191 244 216 231 233 161 257 176 283 255 271 284 291 299 296 279 249 250 246 250 221 211 204 177 162 163 162 158 157 145 150 162 151 207 201 203 191 207 214
240 216 229 253 246 177 237 237 233 233 203 121 268 277 229 354 288 277 251 265 266 260 235 238 213 222 216 181 177 173 156 161 154 156 154 148 157 180 202 301 357 354 4 13
241 165 168 222 267 222 251 329 58 54 110 203 234 228 208 239 253 297 251 247 278 281 251 242 226 207 189 165 164 167 161 173 170 167 164 162 170 173 185 181 205 303 321 342
255 252 259 182 261 314 135 74 317 319 280 255 220 251 256 249 267 246 275 276 282 291 292 266 224 187 176 174 181 174 171 185 180 166 166 172 185 180 186 208 220 211 269 310
191 287 214 231 202 214 209 162 173 250 245 255 315 248 263 244 259 266 265 242 283 354 344 308 236 199 183 176 175 175 183 176 184 186 194 197 193 185 192 196 193 206 211 224
254 269 269 210 173 137 213 203 216 132 357 15 223 293 299 271 290 317 295 205 81 54 43 14 25 213 199 167 181 182 177 194 193 195 191 200 195 191 205 212 197 201 197 204
266 281 242 237 138 116 169 163 280 360 278 262 242 256 250 292 307 336 328 281 327 54 62 74 46 6 3 256 193 191 188 195 199 199 195 198 196 199 205 202 207 207 217 199
231 187 267 108 204 224 277 185 62 125 140 250 274 252 211 196 142 19 343 320 245 157 135 79 74 23 224 258 297 263 213 215 204 198 203 194 202 203 203 195 213 212 212 214
312 199 221 226 321 28 61 72 163 183 221 208 198 258 271 219 204 9 323 314 309 299 232 94 62 345 358 338 229 232 262 282 290 266 212 207 208 198 192 204 217 209 204 204
349 306 337 330 359 29 70 88 111 114 55 230 189 257 279 164 349 324 256 280 284 288 294 203 194 206 190 225 196 217 250 239 225 206 228 238 211 194 206 212 217 198 205 212
48 320 219 234 254 191 277 247 218 161 224 241 235 284 280 284 283 270 284 309 303 279 278 288 312 293 280 231 226 249 266 227 236 204 195 216 234 216 216 217 212 208 209 209
177 218 219 243 254 257 255 255 266 210 234 236 267 260 274 279 229 267 303 313 7 348 3 8 2 0 321 323 36 265 275 271 171 185 199 215 226 222 212 217 218 218 210 221
324 249 230 267 248 249 256 259 251 250 256 249 267 277 344 332 328 310 324 312 335 327 328 332 335 347 341 338 327 313 300 296 315 306 301 270 242 225 230 224 224 223 225 217
185 181 135 264 297 297 286 257 246 200 93 269 267 349 359 293 319 311 309 306 333 329 321 328 330 320 314 315 323 318 310 308 286 263 255 256 248 240 221 218 210 212 215 216
167 150 139 238 28 256 247 27 53 106 198 253 259 254 306 349 331 308 269 288 325 321 326 331 324 322 321 317 313 308 310 303 296 280 257 243 241 244 241 226 219 217 212 213
187 140 28 147 189 289 15 27 12 330 234 19 338 349 327 335 305 280 164 335 334 298 280 284 284 293 300 305 305 303 300 297 290 286 286 282 257 248 234 230 228 214 202 213
75 74 140 108 177 244 202 325 292 291 251 58 336 307 314 337 311 288 315 311 302 281 277 278 281 284 293 292 293 290 287 282 276 275 275 274 268 256 250 237 221 211 208 221
26 31 181 182 243 288 48 292 314 277 281 322 327 301 307 285 273 298 301 298 291 283 285 276 269 279 285 285 280 277 278 272 274 273 268 263 259 257 254 235 217 224 232 237
142 161 195 191 236 277 2 352 212 277 318 327 306 302 293 286 287 288 280 292 285 291 292 282 274 274 276 271 270 277 274 276 271 268 265 263 262 259 255 248 248 244 244 243
244 188 199 182 227 204 8 252 180 222 262 279 289 288 287 289 295 293 288 296 305 299 289 284 283 288 276 270 268 275 274 274 272 268 267 265 261 257 254 254 253 251 243 237
316 26 245 14 296 312 298 208 242 237 285 296 288 294 299 293 286 291 309 295 291 286 293 297 284 277 279 278 281 273 276 274 271 272 270 267 262 258 254 250 247 242 234 234
215 12 296 271 310 322 107 271 316 318 307 304 303 291 285 290 284 284 301 298 290 299 295 280 289 283 278 284 279 274 271 269 269 267 263 261 256 255 253 245 241 237 235 231
181 187 143 240 251 234 269 307 310 303 307 306 302 300 302 303 310 308 300 300 306 294 290 286 283 285 281 280 278 277 276 272 270 270 266 258 258 253 247 246 247 235 234 226